Overview Statistics Trail Chart Weather Telemetry Raw packets
 

This is the latest recevied weather packets stored in our database for station/object ES0THZ-13. If no packets are shown the sender has not sent any weather packets the latest 10 day(s).

<< 6 7 8 9 10 11 12 >>
Time Temp. Humidity Pressure Rain* Wind** Luminosity Snow
1788433151 21.11° C 73% 1003.2 hPa - - - -
1788432066 20° C 73% 1003.8 hPa - - - -
1788430951 18.89° C 74% 1003.5 hPa - - - -
1788429851 18.33° C 75% 1003.4 hPa - - - -
1788428791 19.44° C 75% 1003.5 hPa - - - -
1788427791 19.44° C 76% 1003.4 hPa - - - -
1788426806 18.89° C 77% 1003.8 hPa - - - -
1788425720 18.33° C 79% 1004.3 hPa - - - -
1788424616 17.78° C 81% 1004 hPa - - - -
1788423560 18.33° C 82% 1003.1 hPa - - - -
1788422476 18.33° C 84% 1003.7 hPa - - - -
1788421306 18.33° C 86% 1003.2 hPa - - - -
1788420336 18.89° C 87% 1003.4 hPa - - - -
1788419216 18.33° C 89% 1003.8 hPa - - - -
1788418191 18.33° C 90% 1004.8 hPa - - - -
1788417186 17.78° C 90% 1003.5 hPa - - - -
1788416096 17.78° C 89% 1003.7 hPa - - - -
1788414971 17.22° C 91% 1003.9 hPa - - - -
1788413886 15.56° C 91% 1003.2 hPa - - - -
1788412706 16.67° C 89% 1003.2 hPa - - - -
1788411566 16.67° C 88% 1003.9 hPa - - - -
1788410580 16.11° C 89% 1002.6 hPa - - - -
1788409460 14.44° C 92% 1003.9 hPa - - - -
1788408396 14.44° C 92% 1003.3 hPa - - - -
1788407280 14.44° C 91% 1003.1 hPa - - - -

* Rain since midnight (hover to see other rain measurements)
** Current wind speed in m/s (hover to see current wind gust speed)